INTELSAT 40E

Last updated on Sun May 28 2023 00:02:49 GMT+0000 (Coordinated Universal Time)

1 56174U 23052A 23147.38868823 -.00000165 00000+0 00000+0 0 9999 2 56174 0.0100 299.5191 0001753 154.1346 199.9671 1.00271554 638
UTC large
Height (km)
Speed (km/s)
/
Latitude / Longitude
Inclination (degrees)
Orbital Period (minutes)
Azimuth
Elevation
Range (km)
Doppler Factor

Next 0 passes for location: London (51.5072 / 0.1276)

Sorry there are no passes over London.
INTELSAT 40E